Regional Weather Roundup
Issued by NWS Northern Indiana

Home | Current Version | Previous Version | Graphics & Text | Print | Product List | Glossary On
Versions: 1 2 3 4 5 6 7 8 9 10 11 12 13 14 15 16 17 18 19 20 21 22 23 24 25 26 27 28 29 30 31 32 33 34 35 36 37 38 39 40 41 42 43 44 45 46 47 48 49 50
000
ASUS43 KIWX 072100
RWRIWX

KIWX WEATHER ROUNDUP
NATIONAL WEATHER SERVICE NORTHERN INDIANA
400 PM EST WED DEC 07 2016

NOTE: "FAIR" INDICATES FEW OR NO CLOUDS BELOW 12,000 FEET WITH NO
SIGNIFICANT WEATHER AND/OR OBSTRUCTIONS TO VISIBILITY.

* THESE STATIONS ARE NOT UNDER NWS QUALITY CONTROL. THEY ALSO MAY NOT
  REPORT WEATHER SUCH AS PRECIPITATION OR FOG.

INZ001>027-072200-
NORTHERN INDIANA

CITY           SKY/WX    TMP DP  RH WIND       PRES   REMARKS
GARY*          CLOUDY    30  21  69 MISG      30.11
SOUTH BEND     PTSUNNY   29  21  72 SW13G20   30.07S WCI  19
ELKHART*       SUNNY     32  21  64 W9        30.06S WCI  24
GOSHEN         PTSUNNY   33  21  61 W14       30.06S WCI  23
ANGOLA*        PTCLDY    34  21  60 SW12      30.04R WCI  25
FORT WAYNE     PTSUNNY   33  23  66 SW14      30.09R WCI  23
PERU/GRISSOM   CLOUDY    34  23  65 W17       30.09S WCI  23

$$
INZ028>050-072200-
CENTRAL INDIANA

CITY           SKY/WX    TMP DP  RH WIND       PRES   REMARKS
LAFAYETTE      CLOUDY    33  24  69 W10       30.14R WCI  25
MUNCIE*        CLOUDY    36  20  52 SW12      30.11R
INDIANAPOLIS   CLOUDY    36  22  56 W13       30.13S

$$
MIZ043>046-050>051-056>058-064>065-071>073-077>080-072200-
SOUTHWEST LOWER MICHIGAN

CITY           SKY/WX    TMP DP  RH WIND       PRES   REMARKS
BATTLE CREEK   CLOUDY    33  24  69 W16       30.02R WCI  23
BENTON HARBOR  PTSUNNY   34  22  61 W15G23    30.05S WCI  24
HOLLAND        CLOUDY    34  25  69 W16G28    30.01S WCI  24
GRAND RAPIDS   CLOUDY    33  24  69 SW20G29   30.00R WCI  21
KALAMAZOO      CLOUDY    33  22  63 W15       30.03R WCI  23

$$
OHZ001>008-015>018-024>025-072200-
NORTHWEST OHIO

CITY           SKY/WX    TMP DP  RH WIND       PRES   REMARKS
DEFIANCE       PTCLDY    34  22  61 W8        30.07R WCI  27
FINDLAY        PTCLDY    37  23  56 W13       30.06R
TOLEDO EXPRESS PTCLDY    33  24  69 SW15G22   30.05R WCI  23
TOLEDO METCALF MOCLDY    35  25  66 SW14      30.06R WCI  26
LIMA           MOCLDY    34  24  67 SW12      30.07R WCI  25

$$
AND FOR LAKE MICHIGAN COASTAL AND OPEN LAKE BUOY OBSERVATIONS

STATION/POSITION TEMP    WIND        PRES    VSBY  WAVE
                 AIR SEA DIR/SP/G                  HT/PER
                 (F)     (DEG/KT/KT) (MB)    (MI)  (FT/S)
CALUMET HARBOR    28     230/ 14/ 22 1018.5R
MICHIGAN CITY     31     220/ 15/ 21   N/A
BURNS HARBOR      31     260/ 17/ 20 1019.6R
SAINT JOSEPH      35     240/ 17     1018.3F

$$
&&




USA.gov is the U.S. government's official web portal to all federal, state and local government web resources and services.